Location: Dehesa de la Cepeda
(40.6574°N, 4.3013°W)
Time: 02:50:57
(UTC+00:00)

Courier 1B - Pass Details

Date: 01 August 2021
Orbit: 963 x 1209 km, 28.3° (Epoch: 17 September)

Event Time Altitude Azimuth Distance (km) Brightness Sun altitude
Rises 22:23:54 0° 258° (WSW) 4,080 11.0 -25.3°
Reaches altitude 10° 22:27:15 10° 247° (WSW) 3,091 10.2 -25.6°
Enters shadow 22:31:47 25° 213° (SSW) 2,131 9.0 -26.1°
Maximum altitude 22:33:27 27° 193° (SSW) 2,023 - -26.2°
Drops below altitude 10° 22:39:23 10° 138° (SE) 2,954 - -26.8°
Sets 22:42:30 0° 127° (SE) 3,868 - -27.0°
